Weather History for Lander, WY

Change the Weather History Date:

Thursday, January 3, 2013

  Actual Average Record
Temperature  
Mean Temperature 10 °F 21 °F  
Max Temperature 19 °F 33 °F 55 °F (1918)
Min Temperature 1 °F 10 °F -32 °F (1910)
Degree Days  
Heating Degree Days 55 44  
Month to date heating degree days 159 132  
Since 1 July heating degree days 2934 3378  
Cooling Degree Days 0 0  
Month to date cooling degree days 0 0  
Year to date cooling degree days 0 0  
Moisture  
Dew Point -2 °F    
Average Humidity 64    
Maximum Humidity 79    
Minimum Humidity 49    
Precipitation  
Precipitation 0.00 in 0.02 in 0.47 in (1922)
Month to date precipitation 0.00 0.05  
Year to date precipitation 0.00 0.05  
Snow  
Snow 0.00 in 0.30 in - ()
Month to date snowfall 0.0 0.8  
Since 1 July snowfall 15.7 36.5  
Snow Depth 3.00 in    
Sea Level Pressure  
Sea Level Pressure 30.48 in    
Wind  
Wind Speed 2 mph (NW)    
Max Wind Speed 8 mph    
Max Gust Speed 9 mph    
Visibility 10 miles    
Events      
T = Trace of Precipitation, MM = Missing Value Source: NWS Daily Summary

Daily Weather History Graph

Daily Weather History Graph

Search for Another Location

Airport:

Trip Planner

Search our weather history database for the weather conditions in past years. The results will help you decide how hot, cold, wet, or windy it might be!

Date:

Astronomy

Jan. 03, 2013 Rise Set
Actual Time 7:45 AM MST 4:53 PM MST
Civil Twilight 7:13 AM MST 5:25 PM MST
Nautical Twilight 6:38 AM MST 6:01 PM MST
Astronomical Twilight 6:03 AM MST 6:35 PM MST
Moon 11:43 PM MST (1/3) 10:49 AM MST (1/3)
Length of Visible Light 10h 12m
Length of Day
9h 07m
Waning Gibbous, 65% of the Moon is Illuminated
Jan 3
Waning Gibbous
Jan 4
Last Quarter
Jan 11
New
Jan 18
First Quarter
Jan 26
Full

Hourly Weather History & Observations

Time (MST) Temp. Windchill Dew Point Humidity Pressure Visibility Wind Dir Wind Speed Gust Speed Precip Events Conditions
12:53 AM 9.0 °F 0.6 °F -4.0 °F 56% 30.46 in 10.0 mi NW 4.6 mph - N/A   Clear
1:53 AM 10.0 °F 3.6 °F -5.1 °F 51% 30.43 in 10.0 mi West 3.5 mph - N/A   Clear
2:53 AM 1.0 °F -6.7 °F -8.0 °F 66% 30.47 in 10.0 mi ESE 3.5 mph - N/A   Clear
3:53 AM 10.9 °F 0.2 °F -4.0 °F 51% 30.42 in 10.0 mi WSW 6.9 mph - N/A   Clear
4:53 AM 6.1 °F - -6.0 °F 58% 30.47 in 10.0 mi Calm Calm - N/A   Clear
5:53 AM 5.0 °F - -6.0 °F 61% 30.48 in 10.0 mi Calm Calm - N/A   Clear
6:53 AM 6.1 °F - -6.0 °F 58% 30.48 in 10.0 mi Calm Calm - N/A   Clear
7:53 AM 5.0 °F - -6.0 °F 61% 30.49 in 10.0 mi Calm Calm - N/A   Clear
8:53 AM 3.9 °F -3.4 °F -6.0 °F 64% 30.51 in 10.0 mi NW 3.5 mph - N/A   Clear
9:53 AM 10.9 °F - -4.0 °F 51% 30.49 in 10.0 mi Calm Calm - N/A   Clear
10:53 AM 9.0 °F - -0.9 °F 64% 30.50 in 10.0 mi Calm Calm - N/A   Clear
11:53 AM 12.9 °F - 1.0 °F 59% 30.47 in 10.0 mi Calm Calm - N/A   Clear
12:53 PM 17.1 °F - 1.9 °F 52% 30.44 in 10.0 mi Calm Calm - N/A   Clear
1:53 PM 17.1 °F - 3.0 °F 54% 30.43 in 10.0 mi Calm Calm - N/A   Clear
2:53 PM 17.1 °F 11.7 °F 3.9 °F 56% 30.47 in 10.0 mi SE 3.5 mph - N/A   Clear
3:53 PM 18.0 °F - 1.9 °F 50% 30.42 in 10.0 mi Calm Calm - N/A   Clear
4:53 PM 12.0 °F 5.9 °F 1.0 °F 61% 30.47 in 10.0 mi North 3.5 mph - N/A   Clear
5:53 PM 10.9 °F - 1.0 °F 64% 30.50 in 10.0 mi Calm Calm - N/A   Clear
6:53 PM 9.0 °F - -0.0 °F 67% 30.50 in 10.0 mi Calm Calm - N/A   Clear
7:53 PM 5.0 °F -2.1 °F -2.0 °F 73% 30.52 in 10.0 mi ESE 3.5 mph - N/A   Clear
8:53 PM 3.9 °F -3.4 °F -2.0 °F 76% 30.53 in 10.0 mi NW 3.5 mph - N/A   Clear
9:53 PM 3.0 °F - -2.9 °F 76% 30.49 in 10.0 mi Calm Calm - N/A   Clear
10:53 PM 3.0 °F -4.4 °F -2.9 °F 76% 30.51 in 9.0 mi NNW 3.5 mph - N/A   Clear
11:53 PM 5.0 °F -2.1 °F -2.9 °F 70% 30.48 in 10.0 mi NW 3.5 mph - N/A   Clear